Parrsboro, Nova Scotia

6:07 PM ADT on October 19, 2017 (GMT -0300)
Parrsboro

Weather History for CAPR - January, 2014

Change the Weather History Date:

Thursday, January 9, 2014

  Actual Average Record
Temperature  
Mean Temperature 10 °F -  
Max Temperature 20 °F - - ()
Min Temperature 1 °F - - ()
Degree Days  
Heating Degree Days 54    
Moisture  
Dew Point 1 °F    
Average Humidity 59    
Maximum Humidity 82    
Minimum Humidity 32    
Precipitation  
Precipitation 0.01 in - - ()
Sea Level Pressure  
Sea Level Pressure 30.34 in    
Wind  
Wind Speed 5 mph ()    
Max Wind Speed 13 mph    
Max Gust Speed 22 mph    
T = Trace of Precipitation, MM = Missing Value Source: Averaged Metar Reports

Daily Weather History Graph

Daily Weather History Graph

Search for Another Location

Airport or City:

Trip Planner

Search our weather history database for the weather conditions in past years. The results will help you decide how hot, cold, wet, or windy it might be!

Date:

Astronomy

Jan. 09, 2014 Rise Set
Actual Time 7:56 AM AST 4:53 PM AST
Civil Twilight 7:22 AM AST 5:26 PM AST
Nautical Twilight 6:45 AM AST 6:03 PM AST
Astronomical Twilight 6:09 AM AST 6:39 PM AST
Moon 12:24 PM AST (1/9) 1:51 AM AST (1/9)
Length of Visible Light 10h 04m
Length of Day
8h 57m
Waxing Gibbous, 65% of the Moon is Illuminated
Jan 9
Waxing Gibbous
Jan 16
Full
Jan 24
Last Quarter
Jan 30
New
Feb 6
First Quarter

Hourly Weather History & Observations

Time (AST) Temp. Windchill Dew Point Humidity Pressure Visibility Wind Dir Wind Speed Gust Speed Precip Events Conditions
12:00 AM 17.1 °F 5.8 °F 4.8 °F 59% 30.25 in - West 9.2 mph - N/A   Unknown
1:00 AM 15.3 °F 5.4 °F 4.3 °F 62% 30.25 in - West 6.9 mph - N/A   Unknown
2:00 AM 14 °F - 4 °F 51% 30.26 in - West 3.5 mph - -  
2:00 AM 13.8 °F - 3.9 °F 65% 30.26 in - West 2.3 mph - N/A   Unknown
3:00 AM 11.8 °F - 2.7 °F 67% 30.27 in - NNW 1.2 mph - N/A   Unknown
4:00 AM 5.5 °F - 0.1 °F 78% 30.28 in - Calm Calm - N/A   Unknown
5:00 AM 3.9 °F - -0.4 °F 82% 30.27 in - WNW 2.3 mph - N/A   Unknown
6:00 AM 3.7 °F - -0.6 °F 82% 30.27 in - West 2.3 mph - N/A   Unknown
7:00 AM 6.8 °F - 0.5 °F 75% 30.27 in - WNW 2.3 mph - N/A   Unknown
8:00 AM 6 °F - -1 °F 63% 30.29 in - West 1.2 mph - -  
8:00 AM 5.5 °F - -0.6 °F 76% 30.29 in - West 1.2 mph - N/A   Unknown
9:00 AM 10.6 °F - 3.6 °F 73% 30.31 in - West 1.2 mph - N/A   Unknown
10:00 AM 16.0 °F 3.6 °F 1.9 °F 54% 30.32 in - WNW 10.4 mph 18.4 mph N/A   Unknown
11:00 AM 17.4 °F 4.1 °F 0.9 °F 48% 30.33 in - West 12.7 mph 19.6 mph N/A   Unknown
12:00 PM 18.5 °F 5.5 °F 0.9 °F 46% 30.32 in - West 12.7 mph 21.9 mph N/A   Unknown
1:00 PM 20.3 °F 8.3 °F 1.6 °F 44% 30.30 in - West 11.5 mph 21.9 mph N/A   Unknown
2:00 PM 18 °F - 1 °F 32% 30.31 in - West 10.4 mph - -  
2:00 PM 18.5 °F 9.3 °F 1.0 °F 47% 30.31 in - West 6.9 mph 19.6 mph N/A   Unknown
3:00 PM 19.8 °F 7.7 °F 0.7 °F 43% 30.33 in - NW 11.5 mph 21.9 mph N/A   Unknown
5:00 PM 16.3 °F 5.7 °F 1.2 °F 51% 30.40 in - WNW 8.1 mph 17.3 mph N/A   Unknown
6:00 PM 14.7 °F 4.8 °F 0.3 °F 53% 30.44 in - WNW 6.9 mph - N/A   Unknown
8:00 PM 9.3 °F 2.8 °F -0.9 °F 63% 30.50 in - West 3.5 mph - N/A   Unknown
9:00 PM 12.4 °F 0.9 °F -2.4 °F 52% 30.52 in - WNW 8.1 mph - N/A   Unknown
10:00 PM 10.4 °F 2.2 °F -4.9 °F 50% 30.53 in - NW 4.6 mph - N/A   Unknown
11:00 PM 8.8 °F 2.2 °F -2.9 °F 59% 30.56 in - West 3.5 mph - N/A   Unknown